Location: Makanda
(37.6176°N, 89.2090°W)
Time: 01:58:24
(UTC+00:00)

Cosmos 1417 Rocket - Pass Details

Date: 23 September 2019
Orbit: 953 x 998 km, 83.0° (Epoch: 14 October)

Event Time Altitude Azimuth Distance (km) Brightness Sun altitude
Rises 09:57:11 0° 350° (N) 3,714 7.6 -21.9°
Reaches altitude 10° 09:59:43 10° 349° (NNW) 2,765 6.9 -21.4°
Maximum altitude 10:06:02 71° 267° (W) 1,051 4.4 -20.2°
Drops below altitude 10° 10:12:20 10° 184° (S) 2,755 6.7 -19.0°
Sets 10:14:51 0° 182° (S) 3,699 7.4 -18.5°
